Wind_Speed
20 19 19 18 17 16 15 14 12 11 11 12 12 13 16 15 14 17 19 17 18 19 17 16 15 14 14 14 15 17 18 19 21 23 25 28 29 30 29 28 28 28 28 28 27 26 26 27 28 29 29 29 29 29 29 29 29 30 30 30 30 30 30
20 20 20 20 19 17 15 13 12 11 11 12 11 10 13 13 12 16 19 15 16 17 16 17 16 14 15 15 14 15 16 17 18 20 23 27 29 30 30 29 30 30 30 29 28 27 27 28 29 30 30 30 30 30 29 30 30 30 30 31 32 32 32
21 21 21 22 21 19 15 14 13 11 10 10 11 11 10 11 11 14 17 15 14 15 15 17 18 15 16 16 15 16 17 17 17 18 21 24 27 29 29 30 31 31 30 29 29 28 28 29 30 30 31 31 31 30 30 31 31 31 31 32 33 34 34
24 24 25 24 24 22 18 17 15 14 13 11 13 13 10 10 11 11 14 13 12 12 14 16 18 18 18 18 17 18 18 18 18 19 20 22 25 27 28 30 31 31 31 30 29 29 29 30 30 31 32 32 31 31 31 32 32 32 31 32 34 35 35
27 28 28 25 24 23 20 18 17 16 16 15 15 15 11 10 9 10 13 10 8 12 14 15 18 19 19 19 19 19 19 19 19 19 20 21 23 25 26 28 29 30 31 30 30 30 30 30 31 31 32 33 32 31 31 32 32 32 32 33 35 36 36
27 29 30 26 25 24 19 18 17 16 17 17 15 15 14 12 9 10 12 9 9 13 13 13 17 17 17 18 18 19 19 19 19 20 20 21 22 24 25 26 28 30 30 30 30 30 30 31 31 32 33 33 32 31 32 33 33 33 33 33 35 36 37
29 30 30 27 27 25 20 19 17 16 17 16 13 14 17 16 11 10 12 9 9 12 11 11 15 15 16 17 17 18 20 19 20 20 20 21 22 23 25 27 28 29 30 30 31 31 31 31 32 32 33 34 33 32 33 34 35 34 33 34 35 37 38
32 32 29 27 29 28 25 23 21 19 19 16 15 16 17 16 11 10 11 9 9 12 11 11 14 15 16 17 16 17 19 19 20 21 21 22 22 23 25 27 29 30 31 32 31 31 32 32 32 33 34 34 34 34 35 36 36 35 34 35 36 37 38
35 34 31 31 32 29 26 25 23 22 22 18 17 19 19 18 13 11 12 10 10 15 15 14 15 15 16 17 18 18 19 20 21 23 24 24 25 25 26 27 29 30 32 32 32 32 32 32 33 34 35 35 35 36 37 38 38 36 35 35 36 37 38
37 35 34 34 31 26 24 24 20 19 21 20 19 20 22 21 18 16 15 12 12 17 18 17 17 16 17 19 20 21 22 22 23 25 26 26 26 27 28 29 30 31 32 32 32 32 32 33 34 35 35 36 37 38 39 39 39 38 36 36 37 38 39
34 32 33 31 26 24 23 21 19 18 20 20 21 22 24 23 21 20 19 17 15 16 19 22 21 18 19 21 22 23 24 25 26 27 27 28 28 27 28 29 31 32 33 34 34 34 34 35 36 36 36 37 39 40 40 41 40 39 38 37 38 38 39
31 30 30 28 24 24 24 22 23 23 22 22 23 25 26 24 23 23 22 22 20 17 18 24 25 22 21 22 23 24 25 26 27 28 28 30 30 29 29 29 31 32 33 34 35 36 36 37 36 37 38 39 40 41 41 42 41 40 39 38 39 39 40
31 30 30 28 27 28 27 28 29 28 27 27 27 27 27 26 25 26 26 28 25 20 21 25 27 26 24 24 25 26 27 27 28 29 29 30 31 31 31 31 32 33 34 35 36 36 37 38 38 38 39 40 41 42 42 42 41 40 40 39 40 41 42
31 32 32 32 31 32 31 33 34 33 32 32 30 30 30 28 27 29 30 32 30 26 26 29 29 28 28 28 27 28 29 29 29 30 30 31 31 32 33 33 34 35 35 36 37 37 38 39 39 39 40 41 42 42 43 43 42 40 39 40 41 42 43
31 31 32 33 34 34 34 35 36 35 34 33 33 34 33 31 32 33 35 35 34 33 33 31 29 30 31 30 29 29 29 30 30 30 30 31 32 32 33 34 35 36 37 38 38 38 39 40 40 41 42 42 42 43 44 43 41 39 39 40 43 44 45
33 31 31 33 34 35 37 37 37 36 36 35 35 35 35 35 36 37 38 38 38 38 38 34 31 31 32 31 31 30 30 30 31 31 31 32 32 33 33 35 36 37 37 37 38 39 40 41 41 42 43 43 42 43 44 42 40 39 40 42 44 46 46
35 34 32 32 34 36 39 39 38 37 37 37 37 36 36 37 38 39 40 39 39 41 42 40 37 34 33 31 31 31 30 30 31 32 32 33 33 34 34 35 37 38 37 37 39 40 41 42 42 43 43 42 42 43 42 41 40 41 42 44 46 47 47
38 38 34 33 36 39 40 40 38 37 37 37 37 37 37 38 39 40 40 40 41 43 43 43 42 38 34 31 30 31 31 31 31 32 32 33 34 35 35 35 36 37 37 38 39 40 41 42 43 42 41 41 42 42 41 41 43 44 44 46 47 48 48
39 38 34 34 38 39 40 40 38 36 36 36 37 38 39 39 40 41 40 41 43 44 44 44 43 39 36 32 30 31 31 31 31 32 32 33 34 34 35 35 35 35 36 37 39 40 41 41 41 41 41 42 42 41 41 43 45 46 47 48 48 48 48
39 37 35 37 38 38 39 39 38 37 37 38 39 40 41 42 43 42 41 43 45 45 44 44 42 39 36 32 30 30 30 30 30 30 31 32 32 33 33 33 34 34 35 36 38 39 39 39 39 40 41 41 41 41 43 45 46 47 48 50 49 49 49
39 39 39 40 40 41 42 42 41 41 41 41 42 42 43 44 45 44 44 45 45 44 44 42 39 37 34 30 29 29 29 28 28 29 30 30 31 31 31 32 33 33 34 36 37 37 38 38 39 40 41 41 41 42 44 46 47 48 50 51 50 49 49
39 40 40 38 39 40 40 41 42 43 43 43 44 44 45 45 45 45 45 45 44 42 41 39 37 35 32 29 30 29 28 28 28 28 29 29 30 30 31 32 32 33 34 35 36 36 37 38 40 40 40 41 42 44 45 46 47 49 50 51 50 49 49
42 42 41 39 40 40 39 40 41 41 41 42 43 44 44 43 43 42 41 40 40 39 38 37 35 33 31 30 32 31 28 28 28 28 29 29 30 31 32 32 33 33 34 35 35 36 37 38 40 40 41 42 43 44 45 46 47 49 50 50 49 48 48
46 44 42 42 42 41 41 41 41 41 43 43 42 42 41 41 43 41 37 36 37 37 36 36 35 33 32 32 33 32 30 30 30 30 31 31 32 33 33 33 34 35 35 36 37 38 38 39 40 41 42 43 44 44 44 45 46 48 49 48 48 47 47
48 47 45 44 41 41 42 42 42 42 43 42 42 42 40 41 43 41 36 34 35 35 35 35 35 35 34 33 34 34 34 34 34 33 33 34 34 34 34 34 35 36 37 37 38 39 40 40 41 41 42 43 43 44 44 45 46 47 47 47 47 46 45
44 44 43 42 41 43 43 42 42 42 41 40 42 42 40 40 41 40 37 35 34 34 35 36 36 36 36 36 36 36 36 36 35 35 35 36 36 36 36 37 37 38 38 39 39 40 40 40 40 41 41 42 44 45 45 46 47 47 47 48 48 47 46
42 42 41 41 44 46 44 41 42 42 41 41 41 40 40 40 40 39 37 35 34 34 35 36 36 36 36 37 37 37 37 37 37 37 37 38 38 38 38 39 39 39 39 39 40 40 40 39 40 40 41 43 44 45 46 47 48 48 48 49 49 48 46
41 41 42 43 45 46 44 42 43 43 42 42 42 40 40 40 39 38 38 37 35 35 35 36 37 37 37 38 39 38 38 38 38 39 39 39 39 39 40 40 40 40 40 40 40 39 39 39 39 40 41 43 44 45 45 46 47 47 48 48 48 47 46
39 39 41 43 43 43 43 43 44 43 42 43 42 42 41 40 40 39 39 38 37 36 37 37 38 38 39 39 40 40 39 39 39 40 40 40 40 41 41 41 41 41 40 40 40 39 39 39 40 40 42 43 44 45 45 45 46 46 47 46 46 46 45
42 42 43 44 43 43 43 44 44 43 43 43 43 43 42 41 40 40 40 39 38 38 39 39 40 40 40 40 41 41 40 39 39 40 40 41 41 42 42 42 41 41 41 40 39 39 40 40 41 42 43 44 44 45 46 46 46 46 46 46 45 44 44
42 44 45 44 44 45 45 45 46 46 45 44 43 43 43 42 41 41 41 40 40 40 41 41 41 41 41 40 40 40 40 40 39 39 40 40 41 41 42 42 42 41 41 40 40 40 41 42 42 43 44 45 45 45 46 47 47 47 46 46 44 44 44
42 44 44 43 43 45 46 46 46 46 45 44 43 43 43 43 43 42 42 42 42 42 42 42 41 41 40 39 39 39 38 38 37 38 38 38 39 41 42 43 43 42 42 41 41 42 43 44 44 44 45 45 45 45 46 47 47 47 46 45 44 44 44
43 45 44 43 44 47 47 46 46 46 45 44 44 44 44 44 44 44 44 44 44 43 42 41 40 39 38 38 37 36 35 35 36 37 39 39 40 42 43 43 43 43 43 43 44 45 45 45 45 45 45 45 45 45 46 47 47 46 45 43 43 43 43
43 44 42 41 44 46 45 44 45 45 45 44 44 45 45 44 44 45 44 44 44 43 41 40 38 37 35 35 35 35 35 36 38 39 41 42 42 43 43 43 42 43 45 46 47 47 47 46 46 45 45 45 46 46 47 47 47 45 43 42 42 42 42
44 43 40 39 42 44 44 45 46 46 46 46 46 46 46 45 45 45 45 44 43 41 40 39 37 34 33 34 36 38 38 39 40 42 44 45 45 45 46 44 43 45 47 49 50 50 48 47 47 46 46 46 46 47 48 48 46 44 43 42 42 42 41
47 46 45 44 46 47 47 47 47 48 48 48 47 47 47 46 45 45 44 43 42 41 40 38 36 34 34 36 39 40 40 41 43 45 46 46 47 48 48 46 45 47 50 52 52 50 49 48 48 47 47 47 47 47 48 48 46 43 42 42 41 41 40
49 48 47 47 47 48 48 48 48 48 48 47 47 46 46 46 45 44 43 42 42 42 40 38 37 36 37 38 40 42 43 44 46 47 47 47 48 49 49 49 50 52 53 53 51 50 50 49 49 48 48 48 48 48 48 46 44 42 41 41 40 40 39
Wind_Direction
231 230 233 227 218 219 222 225 227 225 225 231 232 234 244 253 265 276 280 286 289 286 281 274 270 271 272 272 272 272 270 266 262 260 261 261 263 266 269 272 275 279 282 283 284 284 287 292 295 298 301 304 306 307 308 310 313 317 319 319 317 314 311
231 227 227 224 218 219 221 228 235 233 233 240 241 244 263 275 279 279 282 288 288 286 283 277 273 273 272 270 271 273 273 272 269 264 262 262 263 265 267 271 275 278 280 282 283 283 286 289 292 295 299 302 304 305 307 308 310 314 316 317 317 315 312
230 228 224 222 223 224 221 226 234 231 235 247 251 252 264 278 279 280 283 288 291 282 271 272 276 275 273 273 276 280 281 280 277 272 269 268 268 268 269 271 274 276 278 280 282 283 285 288 291 294 297 299 302 305 307 307 308 310 313 315 315 314 312
225 227 224 221 225 229 229 235 244 241 233 232 247 256 260 268 275 275 275 290 307 289 270 274 278 276 276 279 282 285 287 287 285 281 278 277 276 275 274 273 273 274 276 279 281 283 284 287 290 292 294 297 302 305 306 306 306 308 310 312 313 313 311
222 227 226 222 226 232 234 240 246 248 243 239 251 262 262 265 274 270 265 273 282 271 272 277 274 272 276 279 282 287 290 292 292 290 287 284 283 282 280 278 276 275 276 278 280 282 284 287 288 290 292 296 301 304 304 305 305 306 308 309 310 310 309
224 228 228 224 228 233 233 238 242 246 247 245 253 266 265 262 269 272 270 265 255 260 271 273 269 273 278 278 282 287 289 292 293 293 291 288 286 286 284 282 280 278 278 279 280 281 284 286 287 288 291 295 300 302 303 304 304 304 305 306 307 308 308
224 228 228 223 229 236 236 236 233 234 241 244 249 256 261 263 266 272 267 260 260 262 262 266 269 275 278 278 282 284 286 290 292 292 291 290 289 287 285 283 282 281 280 280 280 281 283 284 285 288 291 295 299 301 302 303 303 302 302 303 305 306 307
226 229 230 225 227 233 236 237 230 228 234 240 241 245 257 266 269 276 270 266 277 270 262 271 274 273 275 274 273 275 280 287 291 293 293 293 292 290 286 283 281 281 281 280 281 281 281 283 285 288 291 294 298 301 301 302 302 301 301 301 303 305 307
228 227 227 226 228 230 234 239 237 237 239 243 247 253 263 265 261 270 272 273 281 273 272 282 279 276 282 278 274 276 279 284 289 291 292 293 294 293 289 286 283 281 280 280 280 281 282 284 286 288 291 294 298 300 300 301 301 301 301 301 302 304 306
228 228 228 231 235 237 238 242 245 245 246 251 256 259 263 261 256 262 268 267 271 275 283 286 276 280 292 288 283 283 284 286 288 289 290 291 292 291 289 286 284 282 282 282 282 282 283 284 285 287 291 295 297 299 300 301 301 301 301 301 301 303 306
230 231 234 237 240 242 244 247 252 252 252 255 256 255 258 260 260 265 267 263 259 269 287 287 275 279 295 294 289 286 285 287 288 288 289 290 290 289 286 283 281 281 281 281 282 282 282 283 285 288 292 294 297 298 299 301 302 302 301 300 300 303 305
229 229 234 234 231 236 242 245 247 249 252 254 252 253 257 261 266 273 275 273 265 257 271 281 278 281 293 294 287 283 283 285 285 285 287 288 289 289 287 285 282 280 279 279 280 281 282 284 286 289 292 294 296 298 299 301 301 301 301 299 300 303 306
229 229 231 231 228 232 242 248 248 248 250 251 252 257 261 261 266 272 275 278 278 269 269 277 281 285 291 290 283 279 279 279 279 281 283 284 286 287 288 288 285 283 282 280 280 281 283 285 287 289 292 294 296 298 299 300 300 300 299 299 302 305 307
232 232 233 233 234 237 242 249 252 251 252 254 258 262 264 265 269 274 275 276 280 280 277 278 281 285 286 284 279 276 275 275 275 277 279 281 283 284 286 286 285 284 283 282 282 283 285 286 288 290 292 294 296 298 298 298 298 298 299 301 303 306 307
235 237 239 240 240 242 245 247 251 252 252 255 258 261 265 269 273 276 277 278 281 283 280 278 281 285 284 281 277 273 272 273 274 275 276 277 279 280 282 282 282 282 282 282 284 285 285 286 288 290 292 294 296 297 298 297 297 298 300 302 305 306 307
237 237 240 244 245 246 247 247 249 252 254 257 260 263 267 271 274 276 278 280 283 285 284 284 286 288 285 281 277 273 272 272 273 273 273 274 275 277 278 279 279 280 281 282 283 284 285 287 288 290 292 295 296 297 297 297 298 299 301 303 304 306 307
240 238 237 242 245 247 249 249 249 251 254 258 262 265 268 271 274 277 279 281 283 286 289 291 292 292 289 282 277 274 273 273 272 272 273 274 275 275 275 275 276 278 279 280 281 282 284 286 287 289 292 295 296 296 296 297 298 300 301 303 304 305 307
238 241 240 242 245 247 251 252 252 252 255 259 263 266 268 270 272 275 278 281 284 287 290 292 294 295 291 284 278 276 273 272 272 273 274 274 275 274 274 274 274 276 277 278 279 281 283 284 287 290 293 293 293 293 294 295 296 299 300 302 304 305 306
237 241 243 245 248 249 252 255 257 258 259 262 265 267 269 271 273 276 278 282 285 287 290 292 294 294 291 286 282 277 274 273 273 274 274 275 274 274 274 273 273 274 275 276 278 280 282 285 288 290 291 291 291 290 290 292 295 298 300 302 304 306 307
241 243 244 246 250 253 255 257 259 261 262 263 264 267 269 272 274 276 278 282 285 288 289 291 292 291 291 289 285 279 275 275 275 274 274 274 274 274 275 274 274 274 274 276 278 280 283 285 287 288 288 288 288 288 290 292 295 298 300 302 305 307 307
243 245 246 247 250 253 255 257 259 260 261 261 263 265 267 271 275 278 281 284 285 286 287 288 289 289 289 288 284 280 277 277 276 275 274 274 275 276 277 277 276 276 276 278 279 281 283 284 285 285 286 286 286 288 291 293 296 299 302 304 306 307 307
246 246 247 249 252 254 255 257 257 257 257 258 262 265 267 271 274 277 280 282 282 283 285 286 286 286 286 284 280 279 279 279 278 277 276 276 278 279 280 279 278 278 278 278 279 281 282 283 284 285 286 286 287 289 292 295 299 302 303 305 306 307 307
248 247 248 251 256 259 259 257 257 257 258 260 263 266 268 271 273 273 275 277 278 280 282 283 284 283 282 280 279 279 279 278 278 278 279 281 284 285 285 284 283 281 281 281 281 282 282 283 285 287 287 287 289 292 295 299 302 303 303 304 305 306 306
249 249 250 252 255 256 257 257 258 261 263 264 265 267 268 270 272 273 273 273 275 278 280 281 281 280 277 276 277 278 278 278 279 281 283 285 287 289 289 288 287 286 285 284 284 284 284 285 286 287 288 289 292 296 299 301 302 302 302 304 305 305 306
250 252 252 253 253 252 254 256 257 259 262 264 265 266 268 269 272 274 274 273 273 275 277 278 278 278 276 275 275 277 278 280 282 283 285 287 288 289 290 290 289 288 287 285 285 285 285 285 285 287 289 291 294 296 298 300 300 301 302 304 304 305 305
249 251 252 251 250 251 253 255 256 257 259 261 262 263 265 267 270 273 274 273 273 272 272 274 275 276 277 277 276 278 279 281 283 285 286 287 288 289 290 290 289 289 288 286 285 285 285 285 286 288 290 292 295 297 299 301 302 303 304 304 305 305 305
244 247 249 248 248 251 254 255 257 257 257 258 261 264 266 267 270 274 275 274 274 272 271 272 272 274 276 277 278 279 281 282 284 285 286 286 287 288 289 289 288 288 287 286 285 285 285 286 287 289 292 295 298 300 302 303 304 305 306 305 305 306 305
242 243 246 247 249 252 254 254 256 258 259 261 263 266 268 270 273 275 275 275 274 274 273 273 273 274 276 278 279 280 282 283 285 285 285 286 286 286 286 286 286 285 285 284 284 285 286 287 289 292 294 297 299 301 302 303 304 305 305 305 304 305 305
242 241 244 247 250 253 254 256 258 260 262 264 266 267 269 271 273 274 275 276 277 277 278 278 279 279 279 280 281 282 283 283 284 284 284 284 283 284 284 284 284 284 284 285 286 287 288 289 291 293 295 297 299 300 301 302 303 304 304 304 305 305 306
242 243 246 249 252 254 257 259 262 263 265 266 268 269 271 272 273 275 276 278 279 281 282 283 283 283 283 282 282 283 283 283 283 283 282 282 282 282 283 283 283 285 286 287 289 290 291 291 292 293 295 297 299 299 300 301 302 303 304 305 306 307 307
244 247 249 250 254 258 259 262 263 265 267 268 269 271 274 275 276 277 278 280 281 282 283 284 284 284 283 283 282 283 283 283 283 282 282 282 283 284 285 286 286 287 289 290 291 292 292 292 292 293 296 298 299 299 300 301 302 304 306 307 308 307 306
249 251 251 252 256 259 260 261 264 266 268 269 271 273 275 277 278 279 280 281 282 282 283 283 283 282 282 282 281 281 282 281 282 282 283 284 286 288 290 290 290 290 290 291 292 292 291 291 292 294 296 298 299 299 300 301 304 307 308 308 306 305 304
255 256 255 254 257 260 261 262 264 266 268 270 272 273 275 277 278 279 280 281 282 282 282 282 281 281 280 279 278 279 279 278 278 280 282 283 284 286 288 290 289 289 290 290 291 290 290 291 292 294 296 297 299 299 301 302 304 306 307 305 304 303 303
257 257 257 257 259 263 265 265 266 266 268 270 271 272 273 275 276 278 279 280 281 281 281 281 281 280 278 275 274 274 275 276 278 280 282 282 282 283 285 287 286 286 287 288 289 289 290 291 292 293 295 297 298 300 301 302 304 305 305 304 302 302 301
256 257 258 258 260 262 264 266 268 269 270 270 271 272 273 274 276 277 279 280 280 280 280 279 279 276 271 268 269 271 274 276 279 281 282 281 281 282 283 283 282 282 283 285 287 288 290 291 293 293 295 296 298 299 301 302 304 305 305 304 302 300 300
258 258 259 260 261 262 263 265 267 268 270 271 272 273 274 275 276 277 278 279 279 279 278 277 274 270 266 265 268 272 274 275 276 278 279 278 279 281 281 279 278 280 282 284 286 288 290 291 293 294 295 296 297 299 300 302 304 304 304 303 301 299 299
259 260 260 261 262 263 264 264 265 266 268 270 272 273 274 276 276 277 277 278 278 277 277 275 272 269 267 266 267 268 268 269 272 274 276 276 277 278 279 278 279 282 283 285 287 289 290 291 292 293 294 295 296 297 299 301 303 304 303 301 299 297 298
Height
5907 5909 5909 5910 5912 5914 5914 5915 5916 5917 5918 5918 5918 5919 5919 5918 5919 5918 5916 5916 5916 5916 5916 5915 5915 5915 5915 5916 5916 5916 5916 5917 5917 5917 5917 5916 5916 5915 5916 5916 5916 5915 5914 5913 5913 5912 5911 5910 5910 5908 5907 5906 5906 5904 5903 5901 5899 5898 5896 5894 5892 5890 5888
5905 5907 5908 5908 5910 5911 5912 5913 5914 5914 5915 5915 5916 5917 5917 5916 5917 5916 5914 5914 5914 5914 5914 5912 5912 5913 5913 5913 5913 5913 5913 5914 5915 5915 5914 5913 5912 5912 5913 5913 5913 5912 5911 5910 5910 5909 5908 5908 5907 5906 5904 5904 5903 5901 5899 5898 5896 5894 5893 5891 5889 5887 5885
5903 5905 5906 5907 5907 5908 5910 5911 5911 5912 5914 5914 5914 5914 5916 5916 5916 5916 5913 5912 5912 5912 5911 5910 5909 5910 5910 5910 5910 5910 5911 5911 5912 5912 5911 5910 5909 5909 5910 5910 5909 5909 5908 5907 5906 5906 5905 5904 5903 5902 5901 5900 5900 5898 5896 5894 5893 5891 5890 5888 5886 5884 5882
5902 5902 5903 5904 5904 5905 5907 5908 5909 5910 5911 5913 5912 5912 5913 5914 5914 5915 5913 5912 5912 5911 5909 5908 5907 5907 5907 5907 5908 5908 5908 5908 5908 5908 5908 5907 5907 5906 5906 5906 5905 5905 5904 5903 5903 5902 5902 5901 5900 5899 5898 5897 5896 5895 5893 5891 5890 5888 5887 5885 5883 5881 5879
5898 5898 5899 5902 5903 5903 5905 5906 5907 5907 5908 5910 5910 5909 5910 5911 5911 5911 5911 5911 5912 5910 5907 5906 5906 5905 5906 5905 5905 5905 5905 5905 5905 5905 5905 5904 5903 5903 5902 5902 5902 5901 5901 5900 5900 5899 5898 5898 5897 5896 5895 5894 5893 5892 5890 5888 5887 5885 5884 5882 5880 5878 5876
5896 5896 5896 5899 5900 5901 5903 5904 5905 5906 5906 5907 5908 5908 5908 5908 5908 5908 5907 5908 5909 5907 5904 5904 5904 5904 5904 5903 5903 5903 5902 5902 5902 5902 5901 5901 5900 5900 5899 5898 5898 5897 5897 5897 5896 5896 5895 5894 5894 5893 5892 5890 5890 5889 5887 5885 5883 5882 5880 5879 5876 5874 5872
5892 5892 5894 5897 5898 5899 5901 5902 5904 5905 5904 5904 5906 5907 5905 5904 5905 5905 5904 5905 5905 5903 5902 5902 5902 5902 5902 5901 5901 5900 5899 5899 5899 5898 5898 5898 5897 5897 5896 5895 5895 5894 5894 5893 5893 5893 5892 5891 5890 5889 5888 5887 5886 5885 5883 5882 5880 5878 5877 5875 5873 5870 5868
5889 5890 5892 5895 5895 5896 5897 5898 5901 5902 5903 5903 5904 5904 5902 5902 5902 5902 5901 5902 5902 5900 5900 5900 5900 5900 5899 5899 5898 5898 5897 5896 5896 5895 5895 5895 5894 5894 5893 5892 5891 5890 5890 5890 5889 5889 5888 5888 5887 5886 5884 5883 5882 5881 5880 5878 5876 5875 5873 5871 5869 5867 5864
5886 5887 5888 5890 5890 5892 5894 5895 5896 5898 5899 5900 5900 5900 5899 5899 5900 5899 5899 5901 5901 5898 5897 5898 5897 5896 5896 5896 5895 5895 5894 5893 5893 5892 5891 5891 5891 5890 5890 5889 5888 5887 5886 5886 5886 5885 5885 5884 5883 5882 5881 5879 5878 5877 5875 5874 5872 5871 5869 5867 5865 5863 5860
5882 5883 5885 5886 5887 5890 5892 5892 5893 5895 5895 5896 5897 5896 5895 5896 5897 5896 5897 5898 5898 5895 5894 5894 5893 5893 5893 5892 5892 5891 5891 5890 5890 5889 5888 5888 5888 5887 5886 5885 5884 5883 5883 5882 5882 5882 5881 5880 5879 5878 5877 5875 5874 5873 5871 5869 5868 5866 5865 5863 5860 5858 5856
5880 5882 5883 5884 5887 5889 5889 5890 5891 5892 5892 5893 5894 5893 5892 5892 5892 5892 5893 5894 5895 5894 5892 5890 5889 5890 5890 5889 5889 5888 5888 5887 5886 5885 5884 5884 5884 5884 5883 5882 5881 5880 5879 5879 5878 5878 5877 5876 5876 5874 5873 5872 5870 5868 5866 5865 5863 5862 5860 5858 5856 5853 5851
5878 5880 5880 5882 5885 5886 5886 5887 5887 5888 5889 5889 5889 5889 5889 5888 5889 5889 5889 5889 5891 5892 5891 5887 5886 5886 5887 5886 5886 5885 5884 5884 5883 5882 5881 5880 5879 5879 5879 5878 5877 5876 5876 5875 5875 5874 5873 5872 5872 5870 5869 5868 5866 5864 5862 5861 5859 5857 5855 5853 5851 5849 5847
5875 5876 5877 5879 5881 5882 5883 5883 5883 5884 5885 5885 5886 5886 5885 5885 5885 5886 5885 5884 5886 5888 5887 5884 5883 5883 5883 5883 5883 5882 5881 5881 5880 5879 5878 5877 5875 5875 5874 5874 5873 5872 5871 5871 5870 5870 5869 5868 5868 5866 5865 5863 5861 5860 5858 5856 5855 5853 5850 5848 5846 5844 5842
5871 5873 5874 5876 5877 5878 5879 5879 5879 5880 5881 5881 5882 5882 5881 5881 5882 5882 5881 5880 5881 5884 5883 5881 5880 5880 5879 5879 5879 5878 5877 5877 5876 5876 5875 5874 5872 5871 5870 5869 5868 5868 5867 5866 5866 5866 5865 5864 5863 5862 5861 5859 5857 5855 5854 5852 5850 5848 5846 5843 5841 5839 5837
5868 5869 5871 5872 5874 5875 5875 5876 5875 5876 5877 5878 5879 5878 5877 5878 5878 5878 5877 5876 5877 5879 5878 5877 5878 5876 5875 5874 5874 5874 5873 5873 5872 5872 5871 5870 5869 5867 5866 5865 5864 5863 5863 5862 5862 5861 5860 5860 5859 5858 5856 5854 5853 5851 5849 5847 5845 5843 5841 5839 5837 5835 5832
5863 5866 5867 5868 5870 5871 5871 5871 5871 5873 5874 5874 5874 5874 5874 5874 5873 5873 5873 5872 5872 5872 5871 5872 5873 5872 5870 5870 5869 5869 5869 5869 5868 5867 5866 5865 5864 5863 5863 5861 5860 5859 5859 5858 5858 5857 5856 5855 5855 5853 5852 5850 5849 5847 5844 5842 5840 5839 5837 5835 5832 5830 5828
5859 5860 5863 5865 5865 5866 5865 5865 5867 5869 5870 5870 5870 5869 5869 5869 5869 5869 5869 5868 5867 5866 5865 5865 5866 5867 5866 5865 5865 5865 5864 5864 5863 5863 5861 5861 5860 5859 5858 5857 5856 5855 5855 5854 5853 5852 5852 5851 5850 5849 5848 5846 5844 5842 5839 5838 5836 5834 5832 5831 5828 5826 5823
5855 5855 5859 5861 5860 5860 5859 5859 5862 5865 5865 5865 5865 5865 5864 5863 5864 5864 5864 5864 5862 5861 5860 5860 5860 5861 5861 5861 5860 5860 5859 5859 5859 5858 5857 5856 5855 5854 5854 5853 5852 5851 5851 5850 5849 5848 5847 5847 5846 5845 5844 5842 5839 5837 5835 5833 5831 5829 5828 5826 5824 5821 5819
5850 5851 5855 5856 5854 5855 5855 5856 5858 5860 5861 5861 5861 5860 5859 5858 5858 5859 5860 5858 5857 5856 5856 5855 5855 5856 5856 5856 5856 5855 5854 5854 5853 5853 5852 5851 5850 5850 5849 5848 5848 5847 5846 5845 5844 5844 5843 5843 5842 5841 5839 5837 5834 5832 5831 5828 5826 5825 5823 5821 5819 5817 5814
5846 5848 5850 5850 5850 5850 5851 5852 5854 5856 5857 5857 5856 5856 5854 5853 5853 5854 5854 5853 5852 5852 5852 5851 5850 5850 5850 5850 5850 5849 5848 5848 5848 5848 5847 5846 5845 5845 5844 5844 5843 5843 5842 5841 5840 5840 5839 5839 5838 5836 5834 5832 5830 5828 5826 5824 5822 5820 5818 5815 5813 5811 5809
5843 5844 5845 5846 5846 5846 5846 5848 5849 5851 5851 5851 5850 5851 5850 5849 5848 5849 5849 5848 5848 5847 5847 5846 5846 5845 5845 5845 5844 5843 5843 5843 5843 5842 5842 5841 5841 5840 5840 5840 5839 5838 5838 5837 5836 5836 5835 5834 5832 5831 5829 5827 5825 5823 5822 5820 5818 5816 5813 5810 5808 5806 5803
5839 5840 5841 5841 5841 5841 5842 5843 5843 5844 5845 5845 5845 5845 5845 5845 5845 5845 5844 5844 5843 5843 5842 5842 5842 5841 5841 5841 5839 5838 5839 5839 5838 5837 5837 5837 5836 5836 5836 5835 5835 5834 5833 5832 5832 5831 5830 5829 5827 5825 5824 5822 5820 5819 5817 5815 5813 5811 5807 5805 5803 5800 5798
5833 5835 5836 5836 5837 5838 5838 5837 5837 5838 5839 5840 5840 5841 5841 5841 5840 5840 5841 5840 5839 5839 5838 5838 5838 5838 5838 5837 5835 5835 5835 5834 5834 5833 5833 5833 5832 5832 5831 5831 5830 5829 5828 5827 5827 5826 5825 5823 5822 5820 5819 5817 5816 5814 5812 5810 5808 5805 5802 5800 5798 5795 5793
5827 5830 5831 5832 5834 5833 5831 5831 5832 5832 5833 5835 5836 5836 5837 5835 5833 5834 5837 5836 5835 5835 5834 5834 5834 5834 5834 5833 5831 5831 5831 5830 5829 5829 5829 5828 5828 5827 5826 5826 5825 5824 5823 5822 5822 5820 5819 5818 5817 5816 5814 5813 5811 5809 5808 5806 5803 5800 5798 5796 5793 5791 5788
5823 5824 5826 5828 5829 5827 5825 5826 5828 5828 5829 5831 5831 5831 5832 5830 5828 5830 5832 5832 5831 5831 5830 5830 5830 5829 5829 5828 5827 5827 5826 5825 5825 5825 5824 5824 5823 5822 5822 5821 5820 5819 5818 5817 5816 5815 5814 5813 5812 5811 5809 5808 5806 5804 5803 5801 5798 5795 5793 5791 5788 5786 5783
5819 5819 5820 5823 5822 5820 5820 5822 5823 5824 5826 5826 5825 5826 5827 5826 5824 5825 5827 5827 5827 5827 5827 5826 5826 5825 5824 5823 5823 5822 5821 5821 5821 5820 5820 5819 5819 5818 5818 5817 5816 5815 5814 5813 5812 5811 5810 5809 5808 5806 5804 5802 5801 5799 5797 5795 5792 5789 5787 5785 5783 5780 5777
5813 5813 5814 5816 5814 5813 5816 5818 5817 5818 5821 5820 5820 5821 5821 5821 5821 5821 5822 5823 5823 5823 5822 5822 5822 5821 5820 5818 5818 5817 5817 5817 5817 5816 5815 5815 5814 5814 5813 5812 5811 5810 5809 5808 5807 5806 5805 5804 5802 5801 5799 5797 5795 5793 5791 5788 5785 5783 5780 5778 5776 5774 5772
5808 5809 5808 5807 5807 5808 5811 5812 5811 5813 5814 5815 5816 5816 5816 5817 5817 5817 5817 5818 5818 5818 5818 5817 5817 5817 5816 5814 5813 5813 5813 5813 5812 5811 5811 5810 5809 5809 5808 5807 5806 5805 5804 5803 5802 5801 5800 5799 5797 5795 5794 5792 5790 5788 5785 5782 5780 5777 5775 5772 5771 5769 5766
5803 5804 5802 5801 5803 5805 5806 5806 5807 5809 5809 5810 5811 5812 5812 5813 5813 5812 5812 5812 5812 5813 5812 5812 5812 5811 5811 5810 5809 5808 5809 5808 5807 5807 5806 5805 5804 5804 5803 5802 5801 5800 5799 5797 5796 5795 5795 5793 5792 5790 5788 5786 5784 5782 5780 5777 5775 5772 5770 5768 5766 5763 5761
5797 5797 5796 5798 5800 5800 5800 5800 5801 5803 5804 5804 5805 5805 5806 5807 5807 5807 5807 5807 5807 5807 5806 5806 5805 5805 5805 5804 5803 5802 5803 5802 5802 5801 5800 5800 5799 5798 5798 5797 5795 5794 5793 5792 5791 5790 5789 5788 5787 5785 5783 5781 5779 5776 5774 5772 5770 5768 5765 5763 5761 5758 5755
5792 5791 5792 5794 5795 5795 5795 5796 5796 5797 5798 5798 5799 5799 5799 5800 5801 5801 5801 5801 5801 5801 5800 5800 5799 5798 5798 5798 5796 5796 5796 5796 5795 5795 5794 5793 5793 5793 5792 5791 5790 5789 5788 5786 5785 5784 5783 5782 5781 5779 5777 5775 5773 5771 5769 5766 5764 5762 5760 5757 5755 5752 5750
5786 5785 5787 5791 5791 5790 5790 5790 5790 5791 5792 5793 5794 5794 5794 5794 5794 5794 5795 5795 5795 5794 5794 5794 5793 5793 5792 5792 5791 5790 5790 5790 5789 5788 5788 5787 5787 5786 5786 5785 5784 5783 5782 5781 5780 5778 5777 5776 5774 5772 5771 5769 5767 5765 5763 5761 5758 5756 5754 5752 5749 5747 5744
5780 5779 5781 5785 5785 5783 5784 5785 5785 5786 5787 5787 5788 5788 5788 5788 5788 5788 5788 5788 5788 5788 5788 5788 5788 5787 5786 5786 5785 5784 5784 5784 5783 5782 5782 5781 5781 5781 5780 5779 5778 5777 5776 5775 5774 5772 5771 5770 5768 5767 5765 5763 5761 5760 5758 5755 5753 5751 5749 5747 5744 5741 5738
5773 5772 5776 5779 5778 5777 5777 5779 5779 5779 5781 5782 5782 5782 5782 5782 5782 5782 5782 5782 5782 5782 5782 5782 5782 5781 5781 5780 5779 5779 5779 5778 5777 5777 5776 5775 5775 5775 5774 5773 5772 5771 5770 5769 5768 5766 5765 5764 5762 5761 5760 5758 5756 5754 5752 5749 5748 5746 5744 5741 5738 5735 5733
5765 5767 5771 5773 5772 5771 5772 5772 5772 5772 5774 5775 5775 5775 5776 5776 5776 5776 5776 5776 5776 5777 5776 5776 5776 5776 5775 5775 5774 5773 5773 5773 5772 5772 5771 5770 5769 5769 5768 5767 5766 5765 5764 5763 5761 5760 5759 5758 5756 5755 5754 5752 5750 5748 5746 5744 5742 5740 5738 5735 5732 5730 5727
5759 5762 5765 5766 5765 5765 5765 5766 5766 5766 5767 5768 5768 5768 5769 5770 5770 5770 5770 5770 5770 5770 5770 5770 5771 5770 5770 5769 5768 5767 5767 5767 5766 5765 5765 5764 5763 5762 5761 5760 5760 5759 5757 5756 5755 5754 5752 5751 5750 5748 5747 5746 5744 5742 5739 5737 5736 5734 5731 5729 5727 5724 5722
5752 5755 5757 5759 5758 5758 5758 5759 5760 5761 5761 5762 5762 5762 5762 5763 5763 5764 5764 5765 5764 5764 5764 5764 5765 5764 5764 5763 5762 5761 5760 5760 5759 5759 5758 5758 5757 5756 5755 5754 5753 5752 5751 5750 5749 5747 5746 5744 5743 5742 5741 5739 5737 5736 5734 5731 5729 5728 5726 5723 5721 5719 5717